Location: Newark
(46.7636°N, 1.8358°W)
Time: 23:54:25
(UTC+00:00)

Tiros 1 - Pass Details

Date: 22 October 2019
Orbit: 630 x 664 km, 48.4° (Epoch: 14 November)

Event Time Altitude Azimuth Distance (km) Brightness Sun altitude
Exits shadow 05:56:35 - 285° (WNW) 2,192 9.2 -7.2°
Reaches altitude 10° 05:56:52 10° 285° (WNW) 2,084 9.1 -7.1°
Maximum altitude 06:01:38 65° 204° (SSW) 732 7.4 -6.3°
Drops below altitude 10° 06:06:23 10° 123° (ESE) 2,076 11.1 -5.5°
Sets 06:08:44 0° 121° (ESE) 2,984 12.2 -5.1°
